Location: Unspecified
(42.2730°N, 83.7130°W)
Time: 07:05:50
(UTC+00:00)

Daily predictions for brighter satellites

Satellite Brightness Start Highest point End
(mag) Time Altitude Azimuth Time Altitude Azimuth Time Altitude Azimuth
Cosmos 1515 4.1 12:00:54 10° NNW 12:04:30 41° W 12:08:04 10° SSW
Meteor 1-23 Rocket 4.2 12:01:15 10° NNW 12:06:57 74° W 12:12:32 10° S
Okean-O 2.9 12:06:02 10° N 12:10:16 44° WNW 12:14:28 10° SW
Cosmos 44 4.4 12:08:48 10° WSW 12:13:26 29° NW 12:18:11 10° NNE
RESURS DK-1 2.3 12:10:55 10° SSW 12:15:03 68° WNW 12:19:13 10° NNE
METEOR-M 4.2 12:13:09 10° N 12:18:23 56° WNW 12:23:35 10° SSW
Cosmos 1536 3.6 12:15:14 10° SW 12:18:45 30° WNW 12:22:18 10° NNW
ELECTRON R/B 4.3 12:18:23 10° SSW 12:20:41 50° W 12:22:58 10° N
Cosmos 2333 Rocket 3.7 12:17:56 10° WNW 12:21:37 18° W 12:25:17 10° SW
ATLAS 3B R/B 3.6 12:20:37 10° NW 12:26:03 28° WSW 12:31:30 10° SSW
Cosmos 2227 Rocket 2.6 12:22:23 10° SW 12:27:43 43° WNW 12:33:05 10° NNE
CENTAUR R/B 3.4 12:20:54 10° NW 12:28:53 64° WSW 12:37:21 10° SSE
Cosmos 2227 4.2 22:25:54 10° NNW 22:31:31 65° ENE 22:37:09 10° SE
Iridium 4 Rocket 4.2 22:26:26 10° N 22:32:21 72° W 22:38:08 10° S
Cosmos 1484 Rocket 3.6 22:37:25 10° S 22:41:04 53° W 22:44:43 10° NNW
AQUARIUS 4.3 22:39:32 10° SSE 22:43:52 50° ENE 22:48:14 10° N
SL-16 R/B 2.6 22:38:37 10° S 22:43:57 45° ESE 22:49:20 10° NE
Cosmos 841 Rocket 3.5 22:42:48 10° NNW 22:48:03 83° ENE 22:53:12 10° SSE
SeaSat 1 2.7 22:44:42 10° SSE 22:49:37 75° WSW 22:54:34 10° NNW
Cosmos 2341 Rocket 4.2 22:43:23 10° S 22:49:46 82° W 22:56:12 10° N
Cosmos 1607 4.4 22:44:19 10° S 22:50:25 48° ESE 22:56:30 10° NE
USA 215 4.4 22:46:44 10° ENE 22:51:51 25° N 22:56:58 10° NW
Cosmos 1300 Rocket 4.1 22:49:36 10° N 22:53:44 36° ENE 22:57:48 10° SE
Cosmos 2151 Rocket 3.9 22:49:47 10° N 22:54:09 45° ENE 22:58:27 10° SSE
Geosat 4.2 22:51:36 10° NNE 22:56:38 75° WNW 23:01:38 10° SW
Cosmos 1763 Rocket 4.4 22:53:02 10° NNW 22:57:57 51° WSW 23:02:49 10° S
SL-8 Rocket 4.0 22:56:16 10° S 23:02:34 87° E 23:08:56 10° N
SMAP 3.0 22:58:23 10° SSE 23:03:03 86° ENE 23:07:43 10° NNW
Cosmos 1674 Rocket 4.0 23:02:10 10° SSE 23:06:15 39° E 23:10:24 10° NNE
Okean-O 3.8 23:03:36 10° S 23:07:51 46° W 23:12:09 10° NNW
Cosmos 540 Rocket 3.4 23:05:03 10° NNW 23:10:13 86° ENE 23:15:19 10° SSE
Okean 2 Rocket 3.5 23:07:54 10° NNW 23:12:16 65° W 23:16:36 10° S
SL-24 DEB 4.5 23:08:10 10° S 23:12:57 79° W 23:17:45 10° N
Cosmos 1666 2.8 23:09:25 10° N 23:13:12 51° E 23:16:58 10° SSE
USA 116 4.4 23:11:30 12° NNE 23:14:56 38° E 23:19:11 10° SSE
GPS 2-04 Rocket1 4.4 23:13:41 10° WSW 23:17:22 30° S 23:21:07 10° SE
Genesis I 4.5 23:13:58 10° WSW 23:17:44 39° NW 23:21:31 10° NNE
CORIOLIS 4.2 23:12:37 10° SSE 23:18:04 85° WSW 23:23:32 10° NNW
FENGYUN 3A 4.0 23:13:44 10° S 23:19:06 72° WSW 23:24:31 10° NNW
Cosmos 1743 3.0 23:16:02 10° N 23:19:42 41° ENE 23:23:20 10° SSE
Cosmos 1486 Rocket 4.2 23:15:44 10° SSW 23:21:01 77° WNW 23:26:23 10° NNE
Cosmos 1844 Rocket 3.8 23:17:43 10° N 23:22:10 23° NE 23:23:30 21° ENE
COSMOS 2428 4.4 23:20:19 10° SE 23:22:18 14° ESE 23:22:18 14° ESE
Cosmos 864 Rocket 4.5 23:18:23 10° S 23:24:35 87° W 23:30:47 10° N
H-2A R/B 2.9 23:23:49 10° SSE 23:27:33 48° ENE 23:31:21 10° N
CZ-4 R/B 4.5 23:23:54 10° SSE 23:27:55 55° ENE 23:31:57 10° N
Cosmos 1356 Rocket 3.8 23:24:02 10° SSW 23:28:04 63° WNW 23:32:13 10° N
ISS -3.8 23:25:11 10° WNW 23:28:26 76° SW 23:30:38 19° SE
Cosmos 2366 rocket 4.1 23:22:21 10° S 23:28:29 78° W 23:34:42 10° N
BREEZE-M DEB (TANK) 3.9 23:25:10 10° WNW 23:28:33 41° N 23:33:34 21° ENE
Cosmos 2263 Rocket 2.3 23:24:19 10° NNW 23:30:01 79° WSW 23:35:40 10° SSE
Cosmos 1821 Rocket 4.4 23:24:25 10° SSE 23:30:16 40° E 23:36:10 10° NNE
Cosmos 1975 2.8 23:26:15 10° N 23:30:17 59° E 23:34:16 10° SSE
Ariane Rocket 3.1 23:25:34 10° SE 23:30:25 49° ENE 23:35:18 10° N
OE (NEXTSAT) 4.2 23:29:11 10° WNW 23:32:41 77° NNE 23:33:58 36° E
ALOS 3.4 23:28:35 10° S 23:33:02 46° W 23:37:32 10° NNW
Meteor 1-12 Rocket 4.3 23:29:10 10° N 23:34:42 52° ENE 23:40:11 10° SSE
Cosmos 2322 Rocket 2.3 23:29:27 10° SSW 23:35:09 77° WNW 23:40:36 11° NNE
COSMO-SKYMED 1 2.5 23:33:48 13° NNE 23:37:39 67° ESE 23:41:57 10° S
Meteor 1-18 Rocket 4.2 23:33:08 10° SSW 23:38:43 82° W 23:44:18 10° N
Cosmos 192 4.3 23:38:49 10° NNW 23:43:49 88° WSW 23:48:46 10° SSE
Cosmos 968 Rocket 3.4 23:41:59 10° S 23:47:12 68° ESE 23:50:19 25° NNE
YAOGAN 1 2.4 23:43:04 10° SSE 23:47:23 79° ENE 23:51:43 10° N
Cosmos 2333 Rocket 4.1 23:44:11 10° SE 23:45:07 13° SE 23:45:07 13° SE
Cosmos 1975 Rocket 4.3 23:44:19 10° SSE 23:46:39 24° SE 23:46:39 24° SE
Cosmos 2360 Rocket 2.1 23:45:33 10° SSW 23:51:07 67° ESE 23:54:06 28° NE
Lacrosse 5 3.8 23:49:34 10° NNW 23:52:30 15° N 23:53:13 15° NNE
ERBS 2.5 23:49:30 10° WSW 23:52:48 61° NW 23:53:11 55° N
Cosmos 1980 Rocket 4.4 23:51:40 10° W 23:55:29 18° NW 23:59:20 10° N
CZ-4 R/B 2.1 23:51:24 10° S 23:55:32 58° W 23:59:44 10° NNW
